Location: Oshawa
(43.9000°N, 78.8670°W)
Time: 03:08:59
(UTC-04:00)

Explorer 11/Cluster Stage 4 - Visible Passes

Search period start: 25 September 2016 00:00
Search period end: 05 October 2016 00:00
Orbit: 467 x 1265 km, 28.8° (Epoch: 23 September)

Date Brightness Start Highest point End Pass type
(mag) Time Alt. Az. Time Alt. Az. Time Alt. Az.
25 Sep 8.7 04:37:52 22° S 04:37:52 22° S 04:42:00 10° SE visible
25 Sep 9.1 06:21:53 10° SW 06:24:12 12° SSW 06:26:26 10° S visible
26 Sep 8.9 04:28:51 19° S 04:28:51 19° S 04:31:56 10° SSE visible
26 Sep 9.2 06:12:56 10° SW 06:14:07 10° SSW 06:15:18 10° SSW visible
27 Sep 9.2 04:19:55 15° SSE 04:19:55 15° SSE 04:21:47 10° SSE visible
28 Sep 9.5 04:11:02 11° SSE 04:11:02 11° SSE 04:11:32 10° SSE visible
